Regional Weather Roundup
Issued by NWS

Home | Current Version | Previous Version | Text Only | Print | Product List | Glossary On
Versions: 1 2 3 4 5 6 7 8 9 10 11 12 13 14 15 16 17 18 19 20 21 22 23 24 25 26 27
000
ASUS46 KSEW 242310
RWRWA

WASHINGTON REGIONAL WEATHER ROUNDUP
NATIONAL WEATHER SERVICE SEATTLE WA
400 PM PDT MON APR 24 2017

NOTE:"FAIR" INDICATES FEW OR NO CLOUDS BELOW 12,000 FEET WITH NO
SIGNIFICANT WEATHER AND/OR OBSTRUCTIONS TO VISIBILITY.

WAZ507-509-555>559-250000-
SEATTLE, TACOMA, EVERETT, AND VICINITY

CITY           SKY/WX    TMP DP  RH WIND       PRES   REMARKS
EVERETT        PTSUNNY   55  42  61 NW8       29.75R
BOEING FIELD   CLOUDY    56  42  59 NW9       29.75R
RENTON         CLOUDY    55  42  61 NW12      29.74S
SEATAC AIRPORT CLOUDY    55  42  61 NW9       29.75S
JBLM-MCCHORD   LGT RAIN  50  50  99 SW5       29.76S
PUYALLUP       DRIZZLE   48  48 100 CALM      29.76S
BREMERTON      NOT AVBL
JBLM-FT LEWIS  LGT RAIN  50  46  88 VRB2      29.80R
TACOMA NARROWS CLOUDY    49  47  93 S6        29.77S
$$

WAZ001-503-506-510-514-515-250000-
NORTH INTERIOR

CITY           SKY/WX    TMP DP  RH WIND       PRES   REMARKS
BELLINGHAM     SUNNY     56  43  61 W9        29.76S
FRIDAY HARBOR  SUNNY     59  40  49 VRB5      29.78S
EASTSOUND      SUNNY     54  45  71 N7        29.77S
PORT ANGELES   SUNNY     55  41  59 CALM      29.79F
EDIZ HOOK      FAIR      55  41  59 CALM      29.79F
PORT TOWNSEND  FAIR      55  41  58 NW12G18   29.78S
NAS WHIDBEY    PTSUNNY   56  44  64 W12       29.80F
ARLINGTON      MOSUNNY   57  39  51 NW17      29.76S
BURLINGTON     SUNNY     55  45  67 W14       29.76S
$$

WAZ020-022-039-040-504-511-512-250000-
SOUTHWEST INTERIOR

CITY           SKY/WX    TMP DP  RH WIND       PRES   REMARKS
SHELTON        PTSUNNY   54  43  66 CALM      29.75R
OLYMPIA        LGT RAIN  49  47  93 SW5       29.78S
CHEHALIS       LGT RAIN  48  46  93 NW5       29.79R
KELSO          CLOUDY    51  43  74 N10       29.79R
VANCOUVER      PTSUNNY   52  47  83 N9G17     29.76R
SCAPPOOSE, OR  CLOUDY    51  45  79 N9        29.77R
PORTLAND, OR   PTSUNNY   51  46  83 NW12      29.77R
$$

WAZ021-516-517-250000-
WASHINGTON COAST

CITY           SKY/WX    TMP DP  RH WIND       PRES   REMARKS
FORKS          MOSUNNY   56  45  66 NW10      29.78S
HOQUIAM        CLOUDY    52  46  80 W18       29.79S
ASTORIA, OR    CLOUDY    53  43  68 NW9       29.80R
$$

WAZ019-023-024-040-567>569-250000-
CASCADE MOUNTAINS AND COLUMBIA GORGE

CITY           SKY/WX    TMP DP  RH WIND       PRES   REMARKS
STAMPEDE PASS  LGT RAIN  38  37  97 CALM      29.68R FOG
TROUTDALE, OR  PTSUNNY   51  46  83 NW8       29.76R
THE DALLES, OR LGT RAIN  51  45  79 NW9       29.70S
$$

WAZ026-027-041>044-520-521-250000-
EAST SLOPES

CITY           SKY/WX    TMP DP  RH WIND       PRES   REMARKS
OMAK           PTSUNNY   59  33  37 CALM      29.65F
WENATCHEE      CLOUDY    57  35  43 SE10      29.65S
ELLENSBURG     PTSUNNY   60  36  40 NE6       29.65S
YAKIMA         LGT RAIN  56  40  55 S5        29.67S
SUNNYSIDE ARPT   N/A     55  39  54 CALM      29.66F
$$

WAZ028-034-035-250000-
COLUMBIA BASIN

CITY           SKY/WX    TMP DP  RH WIND       PRES   REMARKS
EPHRATA        CLOUDY    57  34  41 SW6       29.66F
MOSES LAKE     PTSUNNY   58  33  39 VRB6      29.67F
PASCO          PTSUNNY   59  40  49 SW7       29.69S
HERMISTON, OR  LGT RAIN  56  46  69 SW21G26   29.69R
$$

WAZ036>038-250000-
NORTHEAST WASHINGTON

CITY           SKY/WX    TMP DP  RH WIND       PRES   REMARKS
SPOKANE GEIGER PTSUNNY   50  36  58 SW8       29.68S
SPOKANE FELTS  RAIN      47  42  83 VRB5      29.70R
FAIRCHILD AFB  PTSUNNY   49  40  69 SW9       29.67S
COEURDALENE,ID RAIN      45  41  86 SW9       29.69S FOG
DEER PARK      MOSUNNY   52  37  56 S9        29.67F
$$

WAZ029>033-250000-
SOUTHEAST WASHINGTON

CITY           SKY/WX    TMP DP  RH WIND       PRES   REMARKS
PULLMAN        LGT RAIN  48  40  73 S3        29.69F
LEWISTON, ID   CLOUDY    54  43  66 NW6       29.68S
WALLA WALLA    CLOUDY    55  44  66 SW10      29.69F
PENDLETON, OR  PTSUNNY   54  44  69 W9        29.68S
$$




USA.gov is the U.S. government's official web portal to all federal, state and local government web resources and services.